Weather History for 04270 - April, 2014

Change the Weather History Date:

Tuesday, April 8, 2014

  Actual Average Record
Temperature  
Mean Temperature 31 °F -  
Max Temperature 37 °F 42 °F - ()
Min Temperature 25 °F 28 °F - ()
Degree Days  
Heating Degree Days 34    
Moisture  
Dew Point 16 °F    
Average Humidity 46    
Maximum Humidity 65    
Minimum Humidity 30    
Precipitation  
Precipitation 0.00 in 0.05 in - ()
Sea Level Pressure  
Sea Level Pressure 29.54 in    
Wind  
Wind Speed 4 mph ()    
Max Wind Speed 12 mph    
Max Gust Speed -    
Visibility 7.2 miles    
Events      
T = Trace of Precipitation, MM = Missing Value Source: Averaged Metar Reports

Daily Weather History Graph

Daily Weather History Graph

Search for Another Location

Airport or City:

Trip Planner

Search our weather history database for the weather conditions in past years. The results will help you decide how hot, cold, wet, or windy it might be!

Date:

Astronomy

Apr. 08, 2014 Rise Set
Actual Time 6:03 AM WGST 8:05 PM WGST
Civil Twilight 5:17 AM WGST 8:51 PM WGST
Nautical Twilight 4:17 AM WGST 9:52 PM WGST
Astronomical Twilight 2:59 AM WGST 11:12 PM WGST
Moon 12:16 PM WGST (4/8) 3:50 AM WGST (4/8)
Length of Visible Light 15h 34m
Length of Day
14h 02m
First Quarter, 62% of the Moon is Illuminated
Apr 8
First Quarter
Apr 15
Full
Apr 22
Last Quarter
Apr 29
New
May 7
First Quarter

Hourly Weather History & Observations

Time (WGST) Temp. Windchill Dew Point Humidity Pressure Visibility Wind Dir Wind Speed Gust Speed Precip Events Conditions
12:00 AM 30 °F - 21 °F 58% 29.39 in 31 mi SE 1.2 mph - -  
1:00 AM 29 °F - 12 °F 35% 29.39 in 31 mi ENE 6.9 mph - -  
2:00 AM 29 °F - 11 °F 33% 29.41 in 31 mi East 5.8 mph - -  
3:00 AM 28 °F - 13 °F 38% 29.42 in 28 mi East 4.6 mph - -  
3:50 AM 26.6 °F 21.2 °F 15.8 °F 64% 29.42 in 6.2 mi East 4.6 mph - N/A   Clear
4:00 AM 28 °F - 11 °F 36% 29.44 in 28 mi East 2.3 mph - -  
4:50 AM 26.6 °F 22.6 °F 14.0 °F 59% 29.44 in 6.2 mi East 3.5 mph - N/A   Clear
5:00 AM 26 °F - 13 °F 43% 29.46 in 31 mi ENE 3.5 mph - -  
5:50 AM 26.6 °F 21.2 °F 12.2 °F 55% 29.47 in 6.2 mi East 4.6 mph - N/A   Scattered Clouds
6:00 AM 25 °F - 10 °F 39% 29.48 in 31 mi ENE 4.6 mph - -  
6:50 AM 26.6 °F 20.0 °F 12.2 °F 55% 29.47 in 6.2 mi East 5.8 mph - N/A   Scattered Clouds
7:00 AM 27 °F - 9 °F 33% 29.49 in 31 mi East 5.8 mph - -   Scattered Clouds
7:50 AM 28.4 °F 23.3 °F 10.4 °F 47% 29.47 in 6.2 mi East 4.6 mph - N/A   Mostly Cloudy
8:00 AM 28 °F - 9 °F 30% 29.51 in 28 mi East 3.5 mph - -  
8:50 AM 28.4 °F 24.6 °F 14.0 °F 55% 29.50 in 6.2 mi SSE 3.5 mph - N/A   Mostly Cloudy
9:00 AM 28 °F - 13 °F 41% 29.52 in 28 mi SSW 3.5 mph - -   Mostly Cloudy
9:50 AM 32.0 °F - 17.6 °F 55% 29.53 in 6.2 mi WSW 2.3 mph - N/A   Mostly Cloudy
10:00 AM 33 °F - 15 °F 33% 29.54 in 22 mi WSW 2.3 mph - -   Mostly Cloudy
10:50 AM 33.8 °F 30.8 °F 15.8 °F 48% 29.53 in 6.2 mi WNW 3.5 mph - N/A   Mostly Cloudy
11:00 AM 32 °F - 16 °F 37% 29.54 in 22 mi WSW 4.6 mph - -   Mostly Cloudy
11:50 AM 33.8 °F 29.6 °F 17.6 °F 52% 29.53 in 6.2 mi WSW 4.6 mph - N/A   Mostly Cloudy
12:00 PM 35 °F - 18 °F 36% 29.55 in 25 mi WSW 3.5 mph - -   Mostly Cloudy
12:50 PM 35.6 °F 31.7 °F 17.6 °F 48% 29.53 in 6.2 mi WSW 4.6 mph - N/A   Scattered Clouds
1:00 PM 36 °F - 18 °F 35% 29.55 in 13 mi WSW 3.5 mph - -   Mostly Cloudy
1:50 PM 37.4 °F 32.8 °F 17.6 °F 45% 29.53 in 6.2 mi West 5.8 mph - N/A   Partly Cloudy
2:00 PM 36 °F - 17 °F 31% 29.56 in 25 mi West 5.8 mph - -  
2:50 PM 35.6 °F 27.5 °F 21.2 °F 56% 29.56 in 6.2 mi WSW 11.5 mph - N/A   Partly Cloudy
3:00 PM 36 °F - 17 °F 33% 29.58 in 17 mi WSW 10.4 mph - -  
3:50 PM 35.6 °F 28.0 °F 19.4 °F 52% 29.59 in 6.2 mi SW 10.4 mph - N/A   Scattered Clouds
4:00 PM 35 °F - 17 °F 33% 29.60 in 28 mi SW 9.2 mph - -   Mostly Cloudy
4:50 PM 35.6 °F 28.6 °F 23.0 °F 60% 29.59 in 6.2 mi WSW 9.2 mph - N/A   Mostly Cloudy
5:00 PM 35 °F - 18 °F 37% 29.62 in 28 mi WSW 9.2 mph - -   Mostly Cloudy
6:00 PM 35 °F - 19 °F 40% 29.65 in 31 mi WSW 6.9 mph - -   Overcast
6:50 PM 33.8 °F 27.0 °F 23.0 °F 65% 29.65 in 6.2 mi WSW 8.1 mph - N/A   Mostly Cloudy
7:00 PM 33 °F - 21 °F 49% 29.67 in 31 mi WSW 6.9 mph - -   Partly Cloudy
8:00 PM 32 °F - 21 °F 51% 29.68 in 28 mi SW 2.3 mph - -  
9:00 PM 31 °F - 21 °F 54% 29.71 in 28 mi SSE 1.2 mph - -  
10:00 PM 29 °F - 21 °F 60% 29.74 in 25 mi ESE 3.5 mph - -  
11:00 PM 29 °F - 19 °F 56% 29.76 in 31 mi East 5.8 mph - -